Location: Possagno
(45.8500°N, 11.8667°E)
Time: 09:57:37
(UTC+00:00)

STARLINK-2734 - Pass Details

Date: 30 July 2021
Orbit: 546 x 548 km, 53.1° (Epoch: 22 September)

Event Time Altitude Azimuth Distance (km) Brightness Sun altitude
Rises 20:39:06 0° 291° (WNW) 2,718 8.2 -16.4°
Reaches altitude 10° 20:41:58 10° 270° (W) 1,819 6.8 -16.7°
Maximum altitude 20:44:36 17° 230° (SW) 1,440 5.7 -17.0°
Enters shadow 20:46:09 14° 204° (SSW) 1,577 5.7 -17.1°
